Weather History for Muskegon, MI

Change the Weather History Date:

Friday, December 21, 2012

  Actual Average Record
Temperature  
Mean Temperature 34 °F 29 °F  
Max Temperature 36 °F 34 °F 60 °F (1967)
Min Temperature 31 °F 24 °F -3 °F (1901)
Degree Days  
Heating Degree Days 31 36  
Month to date heating degree days 539 707  
Since 1 July heating degree days 1839 2074  
Cooling Degree Days 0 0  
Month to date cooling degree days 0 0  
Year to date cooling degree days 925 566  
Moisture  
Dew Point 28 °F    
Average Humidity 78    
Maximum Humidity 89    
Minimum Humidity 66    
Precipitation  
Precipitation 0.11 in 0.07 in 0.76 in (1949)
Month to date precipitation 2.83 1.83  
Year to date precipitation 31.38 32.77  
Snow  
Snow 1.10 in 1.00 in 10.50 in (2008)
Month to date snowfall 4.5 19.0  
Since 1 July snowfall 5.3 25.2  
Snow Depth 0.00 in    
Sea Level Pressure  
Sea Level Pressure 29.58 in    
Wind  
Wind Speed 23 mph (NNW)    
Max Wind Speed 35 mph    
Max Gust Speed 56 mph    
Visibility 4 miles    
Events Fog , Rain , Snow    
T = Trace of Precipitation, MM = Missing Value Source: NWS Daily Summary

Daily Weather History Graph

Daily Weather History Graph

Search for Another Location

Airport:

Trip Planner

Search our weather history database for the weather conditions in past years. The results will help you decide how hot, cold, wet, or windy it might be!

Date:

Astronomy

Dec. 21, 2012 Rise Set
Actual Time 8:13 AM EST 5:12 PM EST
Civil Twilight 7:41 AM EST 5:45 PM EST
Nautical Twilight 7:05 AM EST 6:21 PM EST
Astronomical Twilight 6:30 AM EST 6:56 PM EST
Moon 1:05 PM EST (12/21) 1:53 AM EST (12/21)
Length of Visible Light 10h 04m
Length of Day
8h 59m
Waxing Gibbous, 64% of the Moon is Illuminated
Dec 21
Waxing Gibbous
Dec 28
Full
Jan 4
Last Quarter
Jan 11
New
Jan 18
First Quarter

Hourly Weather History & Observations

Time (EST) Temp. Windchill Dew Point Humidity Pressure Visibility Wind Dir Wind Speed Gust Speed Precip Events Conditions
12:27 AM 33.8 °F 23.9 °F 30.2 °F 87% 29.20 in 1.8 mi North 15.0 mph - 0.02 in Snow Light Snow
12:55 AM 34.0 °F 24.6 °F 30.9 °F 89% 29.23 in 4.0 mi NNW 13.8 mph - 0.03 in Snow Light Snow
1:12 AM 35.6 °F 26.2 °F 30.2 °F 81% 29.23 in 9.0 mi NNW 15.0 mph 23.0 mph 0.01 in   Overcast
1:55 AM 35.1 °F 24.1 °F 30.9 °F 85% 29.27 in 4.0 mi NNW 19.6 mph 28.8 mph 0.01 in Snow Light Snow
2:32 AM 35.6 °F 23.7 °F 28.4 °F 75% 29.29 in 5.0 mi NNW 24.2 mph 40.3 mph 0.00 in Snow Light Snow
2:46 AM 35.6 °F 24.5 °F 28.4 °F 75% 29.30 in 9.0 mi NNW 20.7 mph 32.2 mph 0.00 in   Overcast
2:55 AM 35.1 °F 23.5 °F 28.9 °F 78% 29.32 in 10.0 mi NNW 21.9 mph 32.2 mph 0.00 in   Overcast
3:21 AM 35.6 °F 24.8 °F 30.2 °F 81% 29.33 in 5.0 mi NNW 19.6 mph 29.9 mph 0.00 in Snow Light Snow
3:35 AM 35.6 °F 24.0 °F 30.2 °F 81% 29.33 in 10.0 mi NNW 23.0 mph 33.4 mph 0.00 in Rain Light Rain
3:51 AM 35.6 °F 23.4 °F 28.4 °F 75% 29.35 in 9.0 mi NNW 25.3 mph 36.8 mph 0.00 in   Overcast
3:55 AM 35.1 °F 22.5 °F 28.9 °F 78% 29.37 in 8.0 mi NNW 26.5 mph 35.7 mph 0.00 in Snow Light Snow
4:14 AM 33.8 °F 21.9 °F 28.4 °F 81% 29.37 in 2.0 mi NNW 21.9 mph 35.7 mph 0.00 in Snow Light Snow
4:27 AM 33.8 °F 21.6 °F 28.4 °F 81% 29.38 in 5.0 mi NNW 23.0 mph 34.5 mph 0.00 in Snow Light Snow
4:41 AM 33.8 °F 20.3 °F 30.2 °F 87% 29.39 in 1.8 mi NNW 28.8 mph 35.7 mph 0.00 in Snow Light Snow
4:47 AM 35.6 °F 23.7 °F 28.4 °F 75% 29.40 in 3.0 mi NNW 24.2 mph 36.8 mph 0.00 in Snow Light Snow
4:55 AM 35.1 °F 22.7 °F 28.0 °F 76% 29.42 in 9.0 mi NNW 25.3 mph 35.7 mph 0.00 in Snow Light Snow
5:05 AM 35.6 °F 23.2 °F 28.4 °F 75% 29.41 in 7.0 mi NNW 26.5 mph 39.1 mph 0.00 in Snow Light Snow
5:25 AM 33.8 °F 21.3 °F 28.4 °F 81% 29.43 in 5.0 mi NNW 24.2 mph 33.4 mph 0.00 in Snow Light Snow
5:55 AM 34.0 °F 21.5 °F 28.0 °F 79% 29.46 in 8.0 mi NNW 24.2 mph 32.2 mph 0.00 in Snow Light Snow
6:04 AM 35.6 °F 22.7 °F 28.4 °F 75% 29.45 in 8.0 mi NNW 28.8 mph 38.0 mph 0.00 in Snow Light Snow
6:27 AM 33.8 °F 21.3 °F 28.4 °F 81% 29.47 in 2.5 mi NNW 24.2 mph 40.3 mph 0.00 in Snow Light Snow
6:33 AM 33.8 °F 21.6 °F 28.4 °F 81% 29.47 in 3.0 mi NNW 23.0 mph 32.2 mph 0.00 in Snow Light Snow
6:42 AM 33.8 °F 21.9 °F 28.4 °F 81% 29.48 in 1.8 mi NNW 21.9 mph 32.2 mph 0.00 in Snow Light Snow
6:55 AM 33.1 °F 21.2 °F 28.9 °F 85% 29.50 in 1.5 mi NNW 20.7 mph 29.9 mph 0.00 in Snow Light Snow
7:02 AM 33.8 °F 21.6 °F 28.4 °F 81% 29.50 in 1.2 mi NNW 23.0 mph 33.4 mph 0.00 in Snow Light Snow
7:10 AM 33.8 °F 22.8 °F 28.4 °F 81% 29.51 in 0.8 mi North 18.4 mph 33.4 mph 0.00 in Snow Light Snow
7:20 AM 33.8 °F 23.9 °F 30.2 °F 87% 29.51 in 2.0 mi NNW 15.0 mph 25.3 mph 0.00 in Snow Light Snow
7:27 AM 33.8 °F 21.9 °F 28.4 °F 81% 29.51 in 3.0 mi NNW 21.9 mph 29.9 mph 0.00 in Snow Light Snow
7:40 AM 33.8 °F 22.8 °F 30.2 °F 87% 29.52 in 1.5 mi NNW 18.4 mph 27.6 mph 0.00 in Snow Light Snow
7:42 AM 33.8 °F 21.9 °F 30.2 °F 87% 29.52 in 2.0 mi NNW 21.9 mph 28.8 mph 0.01 in Snow Light Snow
7:55 AM 34.0 °F 21.0 °F 28.9 °F 82% 29.55 in 1.0 mi NNW 26.5 mph 39.1 mph 0.01 in Snow Light Snow
7:58 AM 33.8 °F 21.3 °F 28.4 °F 81% 29.53 in 2.0 mi NNW 24.2 mph 39.1 mph 0.00 in Snow Light Snow
8:17 AM 33.8 °F 21.3 °F 30.2 °F 87% 29.54 in 1.0 mi NNW 24.2 mph 33.4 mph 0.00 in Snow Light Snow
8:26 AM 33.8 °F 22.8 °F 30.2 °F 87% 29.54 in 0.8 mi NW 18.4 mph 33.4 mph 0.00 in Snow Light Snow
8:47 AM 33.8 °F 19.6 °F 30.2 °F 87% 29.55 in 0.5 mi NNW 32.2 mph 40.3 mph 0.00 in Fog , Snow Light Snow
8:55 AM 34.0 °F 21.8 °F 30.0 °F 85% 29.57 in 0.8 mi NW 23.0 mph 38.0 mph 0.01 in Snow Light Snow
9:04 AM 33.8 °F 21.6 °F 30.2 °F 87% 29.56 in 0.5 mi NNW 23.0 mph 33.4 mph 0.00 in Fog , Snow Light Snow
9:17 AM 33.8 °F 21.6 °F 30.2 °F 87% 29.57 in 1.0 mi NW 23.0 mph 34.5 mph 0.00 in Snow Light Snow
9:24 AM 33.8 °F 21.0 °F 30.2 °F 87% 29.58 in 0.8 mi NW 25.3 mph 38.0 mph 0.00 in Snow Light Snow
9:31 AM 33.8 °F 20.3 °F 30.2 °F 87% 29.58 in 1.5 mi NNW 28.8 mph 43.7 mph 0.00 in Snow Light Snow
9:39 AM 33.8 °F 20.8 °F 30.2 °F 87% 29.59 in 0.8 mi NW 26.5 mph 38.0 mph 0.00 in Snow Light Snow
9:45 AM 33.8 °F 21.3 °F 30.2 °F 87% 29.59 in 1.0 mi NW 24.2 mph 34.5 mph 0.00 in Snow Light Snow
9:55 AM 34.0 °F 21.5 °F 28.9 °F 82% 29.61 in 1.0 mi NW 24.2 mph 36.8 mph 0.00 in Snow Light Snow
10:02 AM 33.8 °F 20.1 °F 28.4 °F 81% 29.61 in 0.5 mi NNW 29.9 mph 49.5 mph 0.00 in Snow Light Snow
10:11 AM 33.8 °F 19.4 °F 28.4 °F 81% 29.61 in 0.8 mi NNW 33.4 mph 56.4 mph 0.00 in Snow Light Snow
10:21 AM 35.6 °F 23.0 °F 28.4 °F 75% 29.63 in 2.0 mi NNW 27.6 mph 39.1 mph 0.00 in Snow Light Snow
10:32 AM 33.8 °F 19.9 °F 28.4 °F 81% 29.63 in 0.8 mi NW 31.1 mph 38.0 mph 0.01 in Snow Light Snow
10:40 AM 35.6 °F 23.4 °F 28.4 °F 75% 29.64 in 2.0 mi NNW 25.3 mph 41.4 mph 0.01 in Snow Light Snow
10:55 AM 35.1 °F 23.0 °F 28.9 °F 78% 29.67 in 2.0 mi NNW 24.2 mph 41.4 mph 0.01 in Snow Light Snow
11:17 AM 33.8 °F 21.0 °F 28.4 °F 81% 29.66 in 1.2 mi NNW 25.3 mph 39.1 mph 0.00 in Snow Light Snow
11:53 AM 33.8 °F 22.5 °F 28.4 °F 81% 29.68 in 2.0 mi NNW 19.6 mph 32.2 mph 0.00 in Snow Light Snow
11:55 AM 34.0 °F 21.8 °F 28.9 °F 82% 29.70 in 2.0 mi NNW 23.0 mph 28.8 mph 0.00 in Snow Light Snow
12:03 PM 33.8 °F 21.3 °F 28.4 °F 81% 29.68 in 1.8 mi NNW 24.2 mph 32.2 mph 0.00 in Snow Light Snow
12:55 PM 35.1 °F 22.2 °F 28.0 °F 76% 29.72 in 2.0 mi NNW 27.6 mph 35.7 mph 0.01 in Snow Light Snow
1:28 PM 33.8 °F 20.3 °F 26.6 °F 75% 29.71 in 1.8 mi NNW 28.8 mph 41.4 mph 0.00 in Snow Light Snow
1:31 PM 33.8 °F 20.3 °F 26.6 °F 75% 29.72 in 3.0 mi NNW 28.8 mph 41.4 mph 0.00 in Snow Light Snow
1:55 PM 35.1 °F 21.6 °F 26.1 °F 70% 29.75 in 7.0 mi NNW 31.1 mph 48.3 mph 0.00 in Snow Light Snow
2:55 PM 35.1 °F 21.4 °F 26.1 °F 70% 29.78 in 5.0 mi NW 32.2 mph 44.9 mph 0.00 in Snow Light Snow
3:55 PM 34.0 °F 21.5 °F 26.1 °F 73% 29.84 in 5.0 mi NNW 24.2 mph 43.7 mph 0.01 in Snow Light Snow
4:18 PM 33.8 °F 20.1 °F 26.6 °F 75% 29.84 in 1.8 mi NNW 29.9 mph 38.0 mph 0.00 in Snow Light Snow
4:28 PM 33.8 °F 21.6 °F 26.6 °F 75% 29.84 in 4.0 mi NW 23.0 mph 33.4 mph 0.00 in Snow Light Snow
4:55 PM 34.0 °F 20.3 °F 26.1 °F 73% 29.88 in 5.0 mi NW 29.9 mph 38.0 mph 0.00 in Snow Light Snow
5:55 PM 34.0 °F 21.3 °F 26.1 °F 73% 29.94 in 9.0 mi NNW 25.3 mph 34.5 mph 0.00 in Snow Light Snow
6:55 PM 34.0 °F 23.0 °F 25.0 °F 70% 29.96 in 9.0 mi NW 18.4 mph 26.5 mph 0.00 in Snow Light Snow
7:55 PM 34.0 °F 23.0 °F 25.0 °F 70% 29.99 in 9.0 mi NNW 18.4 mph 27.6 mph 0.00 in Snow Light Snow
8:55 PM 33.1 °F 21.2 °F 25.0 °F 72% 30.02 in 9.0 mi NNW 20.7 mph 28.8 mph 0.00 in Snow Light Snow
9:55 PM 32.0 °F 18.9 °F 23.0 °F 69% 30.04 in 9.0 mi NNW 24.2 mph 31.1 mph 0.00 in Snow Light Snow
10:55 PM 32.0 °F 21.2 °F 21.9 °F 66% 30.05 in 10.0 mi NNW 16.1 mph 26.5 mph 0.00 in   Overcast
11:55 PM 30.9 °F 18.4 °F 21.0 °F 67% 30.07 in 10.0 mi NNW 20.7 mph 26.5 mph N/A   Overcast